Location: Cicognara
(44.9500°N, 10.4667°E)
Time: 07:00:03
(UTC+00:00)

ERS-2 - Pass Details

Date: 20 June 2021
Orbit: 492 x 495 km, 98.5° (Epoch: 28 July)

Event Time Altitude Azimuth Distance (km) Brightness Sun altitude
Rises 20:00:02 0° 3° (N) 2,592 6.4 -7.9°
Reaches altitude 10° 20:02:18 10° 353° (N) 1,705 5.7 -8.1°
Maximum altitude 20:05:29 29° 292° (WNW) 940 4.3 -8.5°
Drops below altitude 10° 20:08:39 10° 231° (SW) 1,693 4.9 -8.9°
Sets 20:10:54 0° 220° (SW) 2,571 5.7 -9.2°
